GW4846 Weather Reports


time (UTC)temp
C
wind
direction
speed
KPH
gust
KPH
rain 1hr
cm
rain 24hr
cm
rain mn
cm
humidity
%
barometer
mb
20260510194010 31 250 8.0 25.7 0.00 0.05 0.00 71 1016.7
20260510193514 31 304 12.9 25.7 0.00 0.05 0.00 72 1016.7
20260510193026 31 273 14.5 25.7 0.00 0.05 0.00 72 1016.7
20260510192510 31 257 11.3 25.7 0.00 0.05 0.00 72 1016.8
20260510192014 31 282 9.7 25.7 0.00 0.05 0.00 71 1016.8
20260510191527 31 282 12.9 25.7 0.00 0.05 0.00 71 1016.7
20260510191008 31 265 14.5 27.4 0.00 0.05 0.00 71 1016.6
20260510190511 31 274 17.7 27.4 0.00 0.05 0.00 70 1016.7
20260510190025 31 271 16.1 30.6 0.00 0.05 0.00 71 1016.6
20260510185510 31 292 16.1 32.2 0.00 0.05 0.00 71 1016.6
20260510185011 31 325 14.5 32.2 0.00 0.05 0.00 70 1016.7
20260510184505 31 261 11.3 25.7 0.00 0.05 0.00 71 1016.6
20260510184010 31 306 8.0 27.4 0.00 0.05 0.00 70 1016.7
20260510183504 31 340 12.9 27.4 0.00 0.05 0.00 70 1016.8
20260510183026 31 279 9.7 19.3 0.00 0.05 0.00 71 1016.8
20260510182510 31 298 9.7 25.7 0.00 0.05 0.00 70 1016.8
20260510182003 31 284 16.1 30.6 0.00 0.05 0.00 71 1016.9
20260510181522 31 247 8.0 30.6 0.00 0.05 0.00 71 1017.0
20260510181008 31 287 16.1 25.7 0.00 0.05 0.00 71 1017.1
20260510180504 31 265 8.0 20.9 0.00 0.05 0.00 70 1017.1
20260510180020 31 278 11.3 22.5 0.00 0.05 0.00 69 1017.0
20260510175504 32 255 9.7 25.7 0.00 0.05 0.00 68 1017.0
20260510175003 32 284 9.7 25.7 0.00 0.05 0.00 70 1017.0
20260510174514 32 315 11.3 25.7 0.00 0.05 0.00 69 1017.0
20260510174009 32 285 12.9 24.1 0.00 0.05 0.00 70 1017.2
20260510173514 32 266 8.0 24.1 0.00 0.05 0.00 70 1017.3
20260510173011 32 284 12.9 24.1 0.00 0.05 0.00 70 1017.3
20260510172510 32 300 9.7 29.0 0.00 0.05 0.00 70 1017.3
20260510172012 32 238 12.9 29.0 0.00 0.05 0.00 70 1017.5
20260510171510 32 259 16.1 27.4 0.00 0.05 0.00 69 1017.6
20260510171007 32 304 16.1 29.0 0.00 0.05 0.00 69 1017.5
20260510170507 32 263 16.1 29.0 0.00 0.05 0.00 69 1017.4
20260510170007 32 267 11.3 24.1 0.00 0.05 0.00 69 1017.4
20260510165505 32 267 12.9 25.7 0.00 0.05 0.00 69 1017.4
20260510165006 32 277 16.1 25.7 0.00 0.05 0.00 69 1017.5
20260510164529 32 294 9.7 22.5 0.00 0.05 0.00 67 1017.5
20260510164007 32 271 11.3 27.4 0.00 0.05 0.00 65 1017.5
20260510163507 33 272 16.1 27.4 0.00 0.05 0.00 68 1017.4
20260510163024 32 300 9.7 24.1 0.00 0.05 0.00 69 1017.4
20260510162506 32 303 12.9 24.1 0.00 0.05 0.00 67 1017.3
20260510162005 32 276 9.7 20.9 0.00 0.05 0.00 67 1017.4
20260510161517 32 268 4.8 22.5 0.00 0.05 0.00 65 1017.4
20260510161008 32 268 11.3 22.5 0.00 0.05 0.00 68 1017.4
20260510160507 32 311 8.0 16.1 0.00 0.05 0.00 69 1017.4
20260510160016 32 309 8.0 16.1 0.00 0.05 0.00 65 1017.5
20260510155506 31 223 6.4 16.1 0.00 0.05 0.00 65 1017.5
20260510155011 32 246 8.0 25.7 0.00 0.05 0.00 66 1017.6
20260510154512 32 301 17.7 25.7 0.00 0.05 0.00 66 1017.5
20260510154003 31 261 8.0 19.3 0.00 0.05 0.00 67 1017.5
20260510153511 31 242 3.2 17.7 0.00 0.05 0.00 69 1017.4
20260510153018 31 265 8.0 17.7 0.00 0.05 0.00 68 1017.4
20260510152512 31 198 3.2 16.1 0.00 0.05 0.00 66 1017.3
20260510152011 30 258 4.8 20.9 0.00 0.05 0.00 67 1017.3
20260510151514 31 218 8.0 20.9 0.00 0.05 0.00 66 1017.3
20260510151007 31 234 9.7 20.9 0.00 0.05 0.00 66 1017.3
20260510150506 31 240 8.0 17.7 0.00 0.05 0.00 66 1017.4
20260510150012 31 183 8.0 16.1 0.00 0.05 0.00 67 1017.4
20260510145508 30 285 6.4 16.1 0.00 0.05 0.00 69 1017.3
20260510145006 30 277 3.2 17.7 0.00 0.05 0.00 70 1017.2
20260510144535 30 281 9.7 17.7 0.00 0.05 0.00 70 1017.3
20260510144008 30 279 6.4 20.9 0.00 0.05 0.00 69 1017.4
20260510143504 30 200 6.4 20.9 0.00 0.05 0.00 72 1017.4
20260510143026 29 222 11.3 19.3 0.00 0.05 0.00 72 1017.4
20260510142512 29 210 4.8 17.7 0.00 0.05 0.00 75 1017.4
20260510142013 28 212 6.4 20.9 0.00 0.05 0.00 75 1017.3
20260510141515 28 219 9.7 20.9 0.00 0.05 0.00 76 1017.1
20260510141009 28 197 6.4 17.7 0.00 0.05 0.00 77 1017.1
20260510140512 28 157 9.7 17.7 0.00 0.05 0.00 77 1017.2
20260510140016 27 207 6.4 17.7 0.00 0.05 0.00 78 1017.2
20260510135506 27 171 9.7 19.3 0.00 0.05 0.00 78 1017.1
20260510135011 27 182 8.0 19.3 0.00 0.05 0.00 79 1017.0
20260510134524 27 192 8.0 17.7 0.00 0.05 0.00 79 1017.0
20260510134008 27 194 6.4 17.7 0.00 0.05 0.00 80 1017.1
20260510133508 26 163 11.3 17.7 0.00 0.05 0.00 80 1017.1
20260510133025 26 184 9.7 20.9 0.00 0.05 0.00 81 1017.2
20260510132514 26 159 9.7 20.9 0.00 0.05 0.00 80 1017.1
20260510132014 26 160 4.8 14.5 0.00 0.05 0.00 82 1017.1
20260510131519 26 162 4.8 17.7 0.00 0.05 0.00 82 1016.9
20260510131012 26 174 8.0 17.7 0.00 0.05 0.00 82 1017.1
20260510130507 25 165 6.4 16.1 0.00 0.05 0.00 83 1017.0
20260510130017 25 189 9.7 16.1 0.00 0.05 0.00 83 1016.8
20260510125508 25 134 9.7 16.1 0.00 0.05 0.00 83 1016.7
20260510125011 25 182 8.0 19.3 0.00 0.05 0.00 84 1016.8
20260510124524 25 164 8.0 19.3 0.00 0.05 0.00 84 1016.7
20260510124010 25 169 4.8 17.7 0.00 0.05 0.00 85 1016.7
20260510123510 24 136 9.7 17.7 0.00 0.05 0.00 85 1016.7
20260510123018 24 184 9.7 17.7 0.00 0.05 0.00 85 1016.7
20260510122506 24 170 9.7 16.1 0.00 0.05 0.00 86 1016.6
20260510122015 23 167 4.8 12.9 0.00 0.05 0.00 86 1016.6
20260510121529 23 173 6.4 14.5 0.00 0.05 0.00 87 1016.5
20260510121010 23 182 4.8 14.5 0.00 0.05 0.00 87 1016.4
20260510120510 23 132 4.8 12.9 0.00 0.05 0.00 87 1016.3
20260510120037 23 184 4.8 12.9 0.00 0.05 0.00 88 1016.3
20260510115511 23 160 6.4 12.9 0.00 0.05 0.00 88 1016.4
20260510115010 23 163 6.4 12.9 0.00 0.05 0.00 88 1016.2
20260510114524 22 190 4.8 12.9 0.00 0.05 0.00 89 1016.1
20260510114013 22 148 6.4 12.9 0.00 0.05 0.00 89 1016.1
20260510113510 22 159 6.4 12.9 0.00 0.05 0.00 89 1016.0
20260510113024 22 181 4.8 11.3 0.00 0.05 0.00 89 1015.9
20260510112515 22 140 4.8 12.9 0.00 0.05 0.00 89 1015.8
20260510112007 22 149 6.4 12.9 0.00 0.05 0.00 89 1015.7
20260510111521 22 182 4.8 12.9 0.00 0.05 0.00 90 1015.7
20260510111009 22 187 4.8 12.9 0.00 0.05 0.00 90 1015.7
20260510110510 22 167 3.2 9.7 0.00 0.05 0.00 90 1015.6
20260510110025 22 180 4.8 11.3 0.00 0.05 0.00 90 1015.5
20260510105510 22 167 4.8 11.3 0.00 0.05 0.00 91 1015.3
20260510105009 22 167 4.8 11.3 0.00 0.05 0.00 91 1015.2
20260510104528 22 150 3.2 8.0 0.00 0.05 0.00 91 1015.2
20260510104008 21 165 3.2 8.0 0.00 0.05 0.00 90 1015.1
20260510103510 21 166 1.6 6.4 0.00 0.05 0.00 90 1015.1
20260510103027 21 162 1.6 6.4 0.00 0.05 0.00 90 1015.1
20260510102511 22 152 1.6 4.8 0.00 0.05 0.00 90 1015.2
20260510102013 22 161 1.6 4.8 0.00 0.05 0.00 90 1015.2
20260510101529 22 173 1.6 6.4 0.00 0.05 0.00 90 1015.1
20260510101008 22 173 1.6 6.4 0.00 0.05 0.00 90 1015.1
20260510100510 22 121 1.6 3.2 0.00 0.05 0.00 90 1014.9
20260510100029 22 104 0.0 3.2 0.00 0.05 0.00 90 1014.8
20260510095507 22 147 0.0 3.2 0.00 0.05 0.00 90 1014.7
20260510095006 22 142 0.0 4.8 0.00 0.05 0.00 90 1014.7
20260510094534 22 165 0.0 6.4 0.00 0.05 0.00 90 1014.7
20260510094007 22 143 1.6 6.4 0.00 0.05 0.00 89 1014.6
20260510093509 22 164 1.6 3.2 0.00 0.05 0.00 89 1014.5
20260510093024 22 119 0.0 3.2 0.00 0.05 0.00 89 1014.6
20260510092508 22 119 0.0 3.2 0.00 0.05 0.00 89 1014.4
20260510092008 22 124 0.0 3.2 0.00 0.05 0.00 89 1014.3
20260510091523 22 127 1.6 4.8 0.00 0.05 0.00 89 1014.4
20260510091009 22 160 1.6 8.0 0.00 0.05 0.00 89 1014.3
20260510090510 22 121 1.6 6.4 0.00 0.05 0.00 89 1014.3
20260510090020 22 124 1.6 4.8 0.00 0.05 0.00 89 1014.2
20260510085507 22 114 1.6 4.8 0.00 0.05 0.00 89 1014.1
20260510085011 22 103 0.0 3.2 0.00 0.05 0.00 89 1014.1
20260510084515 22 120 1.6 3.2 0.00 0.05 0.00 88 1014.1
20260510084008 22 128 0.0 4.8 0.00 0.05 0.00 88 1014.1
20260510083512 22 149 1.6 4.8 0.00 0.05 0.00 88 1014.0
20260510083017 22 150 0.0 8.0 0.00 0.05 0.00 88 1013.9
20260510082506 22 146 1.6 8.0 0.00 0.05 0.00 88 1014.0
20260510082014 22 130 1.6 6.4 0.00 0.05 0.00 88 1013.9
20260510081528 22 106 0.0 8.0 0.00 0.05 0.00 88 1013.9
20260510081007 22 169 1.6 12.9 0.00 0.05 0.00 88 1013.9
20260510080507 22 126 3.2 12.9 0.00 0.05 0.00 88 1013.9
20260510080033 22 153 3.2 11.3 0.00 0.05 0.00 88 1013.8
20260510075511 22 149 3.2 11.3 0.00 0.05 0.00 88 1013.8
20260510075009 22 138 1.6 9.7 0.00 0.05 0.00 89 1013.8
20260510074532 22 148 3.2 9.7 0.00 0.05 0.00 89 1013.7
20260510074006 22 145 3.2 11.3 0.00 0.05 0.00 89 1013.8
20260510073508 22 148 3.2 11.3 0.00 0.05 0.00 89 1013.9
20260510073023 22 136 1.6 8.0 0.00 0.05 0.00 89 1014.0
20260510072508 22 169 3.2 8.0 0.00 0.05 0.00 89 1014.1
20260510072013 22 121 3.2 6.4 0.00 0.05 0.00 89 1014.1
20260510071521 22 151 1.6 9.7 0.00 0.05 0.00 89 1014.3
20260510071007 22 153 3.2 12.9 0.00 0.05 0.00 89 1014.3
20260510070509 22 126 6.4 12.9 0.00 0.05 0.00 89 1014.3
20260510070019 22 157 3.2 12.9 0.00 0.05 0.00 89 1014.4
20260510065512 22 153 8.0 12.9 0.00 0.05 0.00 89 1014.4
20260510065005 22 157 4.8 11.3 0.00 0.05 0.00 89 1014.3
20260510064512 22 159 3.2 9.7 0.00 0.05 0.00 90 1014.4
20260510064008 22 122 1.6 8.0 0.00 0.05 0.00 90 1014.5
20260510063504 22 117 1.6 8.0 0.00 0.05 0.00 90 1014.6
20260510063013 22 155 1.6 8.0 0.00 0.05 0.00 90 1014.7
20260510062507 22 139 1.6 4.8 0.00 0.05 0.00 90 1014.7
20260510062003 22 148 1.6 3.2 0.00 0.05 0.00 90 1014.8
20260510061509 22 107 0.0 3.2 0.00 0.05 0.00 90 1014.9
20260510061005 22 107 0.0 1.6 0.00 0.05 0.00 90 1014.9
20260510060506 22 107 0.0 3.2 0.00 0.05 0.00 90 1014.9
20260510060007 22 107 0.0 3.2 0.00 0.05 0.00 90 1015.0
20260510055503 22 105 0.0 3.2 0.00 0.05 0.00 90 1014.9
20260510055009 22 107 0.0 4.8 0.00 0.05 0.00 90 1015.1
20260510054512 22 130 0.0 4.8 0.00 0.05 0.00 90 1015.2
20260510054000 22 108 1.6 6.4 0.00 0.05 0.00 90 1015.3
20260510053509 22 115 1.6 6.4 0.00 0.05 0.00 90 1015.3
20260510053011 22 138 1.6 4.8 0.00 0.05 0.00 90 1015.3
20260510052504 22 96 1.6 4.8 0.00 0.05 0.00 90 1015.4
20260510052009 22 119 1.6 4.8 0.00 0.05 0.00 90 1015.5
20260510051504 22 95 0.0 3.2 0.00 0.05 0.00 90 1015.5
20260510051011 22 73 0.0 4.8 0.00 0.05 0.00 90 1015.5
20260510050503 22 75 0.0 4.8 0.00 0.05 0.00 89 1015.6
20260510050005 23 96 0.0 4.8 0.00 0.05 0.00 89 1015.5
20260510045507 23 86 0.0 4.8 0.00 0.05 0.00 90 1015.5
20260510045004 23 103 1.6 4.8 0.00 0.05 0.00 89 1015.6
20260510044509 23 87 1.6 4.8 0.00 0.05 0.00 89 1015.6
20260510044009 23 90 1.6 4.8 0.00 0.05 0.00 89 1015.6
20260510043504 23 82 1.6 4.8 0.00 0.05 0.00 89 1015.7
20260510043010 23 109 0.0 4.8 0.00 0.05 0.00 89 1015.8
20260510042507 23 86 1.6 8.0 0.00 0.05 0.00 89 1015.8
20260510042004 23 28 1.6 8.0 0.00 0.05 0.00 90 1015.9
20260510041513 23 35 3.2 6.4 0.00 0.05 0.00 90 1016.0
20260510041007 23 54 1.6 4.8 0.00 0.05 0.00 90 1016.0
20260510040508 23 45 1.6 4.8 0.00 0.05 0.00 90 1015.9
20260510040016 23 23 1.6 4.8 0.00 0.05 0.00 90 1016.0
20260510035505 23 13 1.6 6.4 0.00 0.05 0.05 90 1016.0
20260510035008 23 360 1.6 6.4 0.00 0.05 0.05 90 1015.9
20260510034512 23 355 0.0 4.8 0.00 0.05 0.05 90 1015.9
20260510034004 23 355 0.0 4.8 0.00 0.05 0.05 90 1015.8
20260510033509 23 352 3.2 4.8 0.00 0.05 0.05 90 1015.8
20260510033012 23 139 1.6 3.2 0.00 0.05 0.05 90 1015.6
20260510032512 23 139 0.0 1.6 0.03 0.05 0.05 90 1015.6
20260510032004 23 139 0.0 3.2 0.05 0.05 0.05 90 1015.5
20260510031510 24 139 0.0 3.2 0.05 0.05 0.05 90 1015.5
20260510031009 24 139 1.6 3.2 0.05 0.05 0.05 90 1015.4
20260510030507 24 163 0.0 3.2 0.05 0.05 0.05 90 1015.6
20260510030008 24 57 0.0 3.2 0.05 0.05 0.05 89 1015.4
20260510025507 24 57 1.6 3.2 0.05 0.05 0.05 89 1015.5
20260510025009 24 88 0.0 3.2 0.05 0.05 0.05 89 1015.4
20260510024512 24 88 0.0 1.6 0.05 0.05 0.05 88 1015.5
20260510024007 24 88 0.0 1.6 0.05 0.05 0.05 88 1015.5
20260510023504 25 88 0.0 3.2 0.05 0.05 0.05 87 1015.5
20260510023035 25 77 1.6 3.2 0.05 0.05 0.05 87 1015.4
20260510022507 25 180 0.0 8.0 0.03 0.03 0.03 86 1015.5
20260510022004 25 186 1.6 8.0 0.00 0.00 0.00 84 1015.4
20260510021524 25 178 3.2 6.4 0.00 0.00 0.00 84 1015.3
20260510021005 25 178 1.6 3.2 0.00 0.00 0.00 84 1015.3
20260510020507 24 235 0.0 3.2 0.00 0.00 0.00 84 1015.2
20260510020020 24 235 0.0 1.6 0.00 0.00 0.00 84 1015.2
20260510015508 24 296 0.0 0.0 0.00 0.00 0.00 84 1015.0
20260510015007 25 296 0.0 0.0 0.00 0.00 0.00 84 1015.1
20260510014519 25 296 0.0 1.6 0.00 0.00 0.00 84 1014.9
20260510014007 25 296 0.0 1.6 0.00 0.00 0.00 84 1014.8
20260510013507 25 296 0.0 3.2 0.00 0.00 0.00 83 1015.0
20260510013014 25 296 0.0 3.2 0.00 0.00 0.00 83 1014.9
20260510012507 25 296 1.6 3.2 0.00 0.00 0.00 82 1014.8
20260510012011 25 216 0.0 0.0 0.00 0.00 0.00 83 1014.6
20260510011518 25 216 0.0 1.6 0.00 0.00 0.00 82 1014.7
20260510011012 25 216 0.0 1.6 0.00 0.00 0.00 82 1014.8
20260510010508 25 216 0.0 0.0 0.00 0.00 0.00 82 1014.6
20260510010016 25 216 0.0 1.6 0.00 0.00 0.00 81 1014.5
20260510005508 25 216 0.0 3.2 0.00 0.00 0.00 81 1014.4
20260510005004 26 216 0.0 3.2 0.00 0.00 0.00 81 1014.4
20260510004507 26 216 1.6 4.8 0.00 0.00 0.00 80 1014.4
20260510004000 26 273 0.0 6.4 0.00 0.00 0.00 80 1014.4
20260510003501 26 311 3.2 8.0 0.00 0.00 0.00 80 1014.3
20260510003005 26 297 1.6 8.0 0.00 0.00 0.00 79 1014.2
20260510002504 26 5 1.6 6.4 0.00 0.00 0.00 80 1014.3
20260510002000 26 328 3.2 6.4 0.00 0.00 0.00 79 1014.3
20260510001504 26 339 1.6 11.3 0.00 0.00 0.00 80 1014.2
20260510001004 26 293 3.2 11.3 0.00 0.00 0.00 80 1014.2
20260510000504 26 271 3.2 9.7 0.00 0.00 0.00 80 1014.3
20260510000004 26 288 3.2 9.7 0.00 0.00 0.00 80 1014.3
20260509235503 26 305 1.6 6.4 0.00 0.00 0.00 77 1014.1
20260509235003 26 298 1.6 9.7 0.00 0.00 0.00 77 1013.8
20260509234503 26 331 3.2 11.3 0.00 0.00 0.00 77 1013.8
20260509234004 26 300 3.2 12.9 0.00 0.00 0.00 76 1014.0
20260509233505 26 277 6.4 16.1 0.00 0.00 0.00 76 1013.9
20260509233016 27 306 3.2 19.3 0.00 0.00 0.00 75 1013.9
20260509232502 27 296 9.7 19.3 0.00 0.00 0.00 75 1013.9
20260509232004 27 287 11.3 17.7 0.00 0.00 0.00 75 1013.9
20260509231509 27 301 3.2 17.7 0.00 0.00 0.00 74 1013.8
20260509231003 27 344 6.4 19.3 0.00 0.00 0.00 73 1013.7
20260509230503 27 304 11.3 22.5 0.00 0.00 0.00 72 1013.8
20260509230008 27 319 16.1 22.5 0.00 0.00 0.00 72 1013.8
20260509225504 27 274 9.7 19.3 0.00 0.00 0.00 71 1013.7
20260509225003 27 277 8.0 19.3 0.00 0.00 0.00 71 1013.6
20260509224504 28 294 11.3 22.5 0.00 0.00 0.00 70 1013.7
20260509224003 28 319 6.4 22.5 0.00 0.00 0.00 70 1013.8
20260509223511 28 299 9.7 22.5 0.00 0.00 0.00 70 1013.7
20260509223006 28 276 8.0 22.5 0.00 0.00 0.00 69 1013.6
20260509222503 28 308 6.4 22.5 0.00 0.00 0.00 69 1013.6
20260509222006 28 281 4.8 22.5 0.00 0.00 0.00 68 1013.4
20260509221504 28 290 9.7 20.9 0.00 0.00 0.00 67 1013.3
20260509221004 28 254 11.3 20.9 0.00 0.00 0.00 68 1013.3
20260509220505 28 265 6.4 22.5 0.00 0.00 0.00 67 1013.1
20260509220007 29 249 11.3 22.5 0.00 0.00 0.00 67 1013.2
20260509215504 29 263 6.4 19.3 0.00 0.00 0.00 65 1013.2
20260509215006 29 242 6.4 19.3 0.00 0.00 0.00 64 1013.0
20260509214504 29 303 4.8 22.5 0.00 0.00 0.00 65 1012.9
20260509214001 29 234 6.4 22.5 0.00 0.00 0.00 65 1012.9
20260509213505 29 279 9.7 25.7 0.00 0.00 0.00 65 1013.0
20260509213012 30 229 11.3 25.7 0.00 0.00 0.00 63 1012.8
20260509212508 30 186 9.7 22.5 0.00 0.00 0.00 62 1012.9
20260509212004 30 279 14.5 22.5 0.00 0.00 0.00 62 1012.8
20260509211507 30 226 6.4 22.5 0.00 0.00 0.00 64 1012.9
20260509211004 31 297 9.7 22.5 0.00 0.00 0.00 62 1012.8
20260509210504 31 267 12.9 22.5 0.00 0.00 0.00 61 1012.7
20260509210005 31 302 14.5 25.7 0.00 0.00 0.00 61 1012.6
20260509205506 31 260 14.5 25.7 0.00 0.00 0.00 60 1012.7
20260509205011 31 280 9.7 24.1 0.00 0.00 0.00 58 1012.7
20260509204504 31 257 9.7 24.1 0.00 0.00 0.00 59 1012.6
20260509204006 31 276 8.0 20.9 0.00 0.00 0.00 61 1012.7
20260509203510 30 277 11.3 25.7 0.00 0.00 0.00 60 1012.7
20260509203026 31 194 14.5 25.7 0.00 0.00 0.00 57 1012.8
20260509202507 31 248 14.5 25.7 0.00 0.00 0.00 59 1012.5
20260509202008 30 196 14.5 29.0 0.00 0.00 0.00 60 1012.6
20260509201510 31 184 11.3 29.0 0.00 0.00 0.00 58 1012.6
20260509201004 31 234 12.9 27.4 0.00 0.00 0.00 58 1012.6
20260509200507 31 203 9.7 22.5 0.00 0.00 0.00 58 1012.7
20260509200008 31 242 11.3 27.4 0.00 0.00 0.00 58 1012.7
20260509195509 31 265 14.5 27.4 0.00 0.00 0.00 57 1012.7
20260509195004 31 250 12.9 25.7 0.00 0.00 0.00 57 1012.8
20260509194505 31 287 11.3 25.7 0.00 0.00 0.00 58 1012.8